#timestamp,LO_Frequency,Hit,StdDev 
1526536815.4,286046999.7,N
1526536835.2,286047001.0,N
1526536855.0,286046998.9,N
1526536855.9,286046998.9,N
1526536875.8,286046999.2,N
1526536895.6,286046998.7,N
1526536915.4,286046996.5,N
1526536935.3,286046998.5,N
1526536955.1,286046998.4,N
1526536975.9,286046996.5,N
1526536995.7,286046997.5,N
1526537015.5,286046997.6,N
1526537035.4,286046999.3,N
1526537055.2,286046996.5,N
1526537075.0,286046997.4,N
1526537075.9,286046997.4,N
1526537095.8,286046996.9,N
1526537115.6,286046996.7,N
1526537135.5,286046997.9,N
1526537155.3,286046997.7,N
1526537175.1,286046995.0,N
1526537195.9,286046997.0,N
1526537215.7,286046998.4,N
1526537235.5,286046999.3,N
1526537255.4,286046999.3,N
1526537275.2,286046996.5,N
1526537295.1,286046999.4,N
1526537296.0,286046999.4,N
1526537315.8,286046999.5,N
1526537335.6,286047000.7,N
1526537355.5,286046999.0,N
1526537375.3,286046999.1,N
1526537395.1,286046998.6,N
1526537415.9,286046999.0,N
1526537435.7,286046998.8,N
1526537455.6,286046998.3,N
1526537475.4,286046998.5,N
1526537495.2,286046998.4,N
1526537515.1,286046999.5,N
1526537516.0,286046999.5,N
1526537535.8,286046998.7,N
1526537555.6,286046998.6,N
1526537575.5,286046999.1,N
1526537595.3,286046998.2,N
1526537615.2,286047000.7,N
1526537635.9,286046998.3,N
1526537655.7,286046999.4,N
1526537675.6,286047000.5,N
1526537695.4,286047001.0,N
1526537715.2,286046998.8,N
1526537735.1,286047001.7,N
1526537736.0,286047001.7,N
1526537755.8,286047003.6,Y
1526537775.7,286047003.2,P
1526537795.5,286047003.8,N
1526537815.3,286047008.7,P
1526537835.2,286047009.2,N
1526537855.0,286047009.2,N
1526537855.9,286047009.2,N
1526537875.8,286047009.0,N
1526537895.6,286047009.8,N
1526537915.4,286047009.3,N
1526537935.3,286047007.7,N
1526537955.1,286047008.0,N
1526537975.9,286047006.2,N
1526537995.7,286047008.9,N
1526538015.5,286047008.4,N
1526538035.4,286047006.8,N
1526538055.2,286047008.1,N
1526538075.0,286047009.2,Y
1526538076.0,286047009.2,P
1526538095.8,286047000.8,N
1526538115.6,286047002.4,N
1526538135.5,286047002.8,N
1526538155.3,286047000.8,N
1526538175.1,286046998.1,N
1526538195.9,286046998.9,N
1526538215.7,286046998.8,N
1526538235.6,286047001.1,N
1526538255.4,286047000.0,N
1526538275.2,286047002.2,N
1526538295.1,286047002.1,N
1526538296.0,286047002.1,N
1526538315.8,286047001.2,N
1526538335.6,286046996.6,N
1526538355.5,286046999.1,N
1526538375.3,286046997.7,N
1526538395.2,286046999.1,N
1526538415.9,286046996.9,N
1526538435.7,286046996.6,N
1526538455.8,286046997.5,N
1526538475.6,286046995.7,N
1526538495.5,286046997.9,N
1526538515.3,286046993.7,N
1526538535.1,286046994.9,N
1526538555.9,286046993.6,N
1526538575.7,286046994.2,N
1526538595.6,286046996.2,N
1526538615.4,286046995.8,N
1526538635.2,286046997.4,N
1526538655.1,286046996.0,N
1526538656.0,286046996.0,N
1526538675.8,286046995.9,N
1526538695.7,286046993.5,N
1526538715.5,286046995.4,N
1526538735.3,286046995.8,N
1526538755.2,286046993.7,N
1526538775.0,286046992.2,Y
1526538775.9,286046992.2,P
1526538795.8,286046996.3,N
1526538815.6,286046995.0,N
1526538835.4,286046998.1,N
1526538855.3,286046999.8,N
1526538875.1,286047001.9,N
1526538895.8,286047000.1,N
1526538915.7,286046998.7,N
1526538935.5,286046996.7,N
1526538955.4,286046999.2,N
1526538975.2,286046997.2,N
1526538995.0,286046996.7,N
1526538995.9,286046996.7,N
1526539015.8,286046995.2,N
1526539035.6,286046996.2,N
1526539055.5,286046998.0,N
1526539075.3,286046999.1,N
1526539095.1,286046997.8,N
1526539115.9,286046997.0,N
1526539135.7,286046998.0,N
1526539155.5,286046997.9,N
1526539175.4,286046994.9,N
1526539195.2,286046995.5,N
1526539215.1,286046997.9,N
1526539216.0,286046997.9,N
1526539235.8,286046995.1,N
1526539255.6,286046995.5,N
1526539275.5,286046996.5,N
1526539295.3,286046999.3,N
1526539315.2,286046999.3,N
1526539335.9,286047000.9,N
1526539355.7,286046999.0,N
1526539375.6,286046999.1,N
1526539395.4,286046997.6,N
1526539415.2,286046995.0,N
1526539435.1,286046996.9,N
1526539436.0,286046996.9,N
1526539455.8,286046999.3,N
1526539475.7,286046997.5,N
1526539495.5,286046997.9,N
1526539515.3,286046997.1,N
1526539535.2,286046999.1,N
1526539555.0,286047001.1,N
1526539555.9,286047001.1,N
1526539575.8,286047000.8,N
1526539595.6,286046997.9,N
1526539615.4,286046996.0,N
1526539635.3,286046993.5,Y
1526539655.1,286046997.9,P
1526539675.9,286046995.9,P
1526539695.7,286046995.1,P
1526539715.5,286046995.1,Y
1526539735.4,286047000.0,P
1526539755.2,286047001.8,N
1526539775.0,286047002.6,N
1526539776.0,286047002.6,N
1526539795.8,286047001.5,N
1526539815.6,286047003.8,N
1526539835.5,286047002.2,N
1526539855.3,286047000.6,N
1526539875.1,286047001.1,N
1526539895.9,286046998.2,N
1526539915.7,286047001.2,N
1526539935.6,286046999.4,N
1526539955.4,286046998.8,N
1526539975.2,286047000.4,N
1526539995.1,286047000.8,N
1526539996.0,286047000.8,N
1526540015.8,286047000.3,N
1526540035.6,286047000.8,N
1526540055.5,286047001.2,N
1526540075.3,286046998.9,N
1526540095.2,286046996.6,N
1526540115.9,286046997.7,N
1526540135.7,286046996.8,N
1526540155.6,286046995.2,N
1526540175.4,286046995.4,N
1526540195.2,286046996.4,N
1526540215.1,286046993.9,N
1526540216.0,286046993.9,N
1526540235.8,286046994.1,N
1526540255.7,286046995.4,N
1526540275.5,286046997.9,N
1526540295.3,286046993.5,N
1526540315.2,286046993.3,N
1526540335.0,286046994.0,N
1526540335.9,286046994.0,N
1526540355.8,286046994.4,N
1526540375.6,286046994.1,N
1526540395.4,286046994.6,N
